User: anonymous   Login
Location: Fort Wayne
(41.1310°N, 85.1290°W)
Time: 16:28:14
(UTC-04:00)
Language:

MetOp-A - Orbit

View from above orbital plane
View from above orbital plane
View from above satellite
View from above satellite

Ground track
Ground track

The orbit data is extracted from the following two-line orbital elements,

1 29499U 06044A   16240.21377756 -.00000008  00000-0  16384-4 0  9993
2 29499  98.6893 298.1066 0000468  11.8866  63.8916 14.21501925511378
Epoch (UTC): 27 August 2016 05:07:50
Eccentricity: 0.0000468
inclination: 98.6893°
perigee height: 820 km
apogee height: 820 km
right ascension of ascending node: 298.1066°
argument of perigee: 11.8866°
revolutions per day: 14.21501925
mean anomaly at epoch: 63.8916°
orbit number at epoch: 51137

The dashed part of the orbit path shows where the satellite is in the earth's shadow,  

DLR